sat.trackr.live / text

‹ back to catalog

STARLINK-2695

NORAD 48644 · 2021-044G

PAYLOAD ACTIVE UNKNOWN

§ Identity

Operator
Country
US
Launch date
2021-05-26
Launch site
AFETR
Launch vehicle
Mass (kg)
RCS (m²)

Purposes: comms

External: N2YO · Heavens-Above · Gunter

§ Orbital elements

Epoch: 2026-05-25T02:39:47.903040Z

Period
94.01 min
Inclination
53.1595°
Eccentricity
0.0001224
Mean motion
15.31693045 rev/d
Perigee alt
469.9 km
Apogee alt
471.6 km
Semi-major
6,848.9 km
B*
4.7650e-5
RAAN
118.6085°
Arg perigee
91.7582°
Mean anomaly
268.3560°
Rev number
27,553

§ Raw data

STARLINK-26951 48644U 21044G   26145.11097110  .00001113  00000+0  47650-4 0  99962 48644  53.1595 118.6085 0001224  91.7582 268.3560 15.31693045275535

JSON: /api/v1/satellites/48644 · /tle

For live sub-satellite position, see the globe view (requires WebGL).

§ Visibility from observer

Set your observer location to see the next 7 days of passes ≥ 10°. The values pass through the URL so the page stays shareable.

No JS? Fill the form by hand. The geolocation button needs JavaScript.